星链-35727(STARLINK-35727)

导读

STARLINK-35727是由美国发射的Starlink卫星,属于SpaceX星链互联网项目,于2025年10月31日发射入轨。星链计划旨在构建全球卫星互联网星座,为全球各地提供高速低延迟的网络服务。该卫星延续了星链星座的技术设计,将与其他数千颗星链卫星协同工作,进一步扩展全球卫星互联网覆盖范围,服务全球用户。

基本信息
目录编号:
66281
目录名称:
STARLINK-35727
国际标识:
2025-247S
轨道中心:
EARTH
卫星名称:
星链-35727
卫星全名:
星链-35727(STARLINK-35727)
卫星状态:
在轨 (已飞行225 天)
发射日期:
2025-10-31 UTC
国别 :
美国 (US)
星等 :
--
轨道信息
数据来源 国际轨道数据
星历时间: 2026-06-12T11:04:08+0800
1天前
查看轨道信息
半长轴: 6840.843km
偏心率: 0.0001145
轨道倾角: 53.160°
近地点辐角 71.222°
升交点赤经 112.713°
平近点角 288.891°
近地点: 461.922km
远地点: 463.49km
周期: 93.848分钟
每日圈数: 15.343994
详细信息
固有亮度:
5
最大亮度:
2.5
卫星平台:
Starlink V1.0
覆盖范围:
全球
运营商:
太空探索技术公司
运营商所在国:
美国
制造商(研发单位):
太空探索技术公司
制造商所在国:
美国
使用方式:
暂无
卫星简介
Starlink 计划是 SpaceX 推出的全球卫星互联网项目,通过发射低轨道卫星,为全球尤其是偏远地区提供高速、低延迟的互联网服务。自 2019 年起,Starlink 已部署数千颗卫星,旨在缩小全球数字鸿沟,推动互联网普及。该项目还为军事、航空等行业提供通信支持,带来广泛经济效益。
2D轨道图
3D轨道图
轨道高度分析图
轨道倾角分析图
轨道综合分析图
查看轨道综合分析图